RH
100 100 100 100 100 100 100 100 98 94 94 94 90 88 93 88 91 94 95 89 92 100 100 100 88 74 73
100 100 100 100 100 100 100 100 100 100 100 100 100 98 100 100 96 89 97 92 96 91 81 75 81 88 82
100 100 100 100 100 100 100 100 100 100 100 100 95 96 98 95 89 84 78 88 93 99 84 90 78 82 84
100 99 100 100 100 100 100 100 100 100 100 100 98 96 100 100 95 84 90 97 93 89 94 91 82 86 80
100 100 100 100 100 100 100 100 100 100 100 96 95 90 93 97 100 92 100 100 94 94 86 79 76 86 94
99 98 100 100 100 100 100 100 97 89 85 85 89 96 96 93 94 88 71 77 92 94 93 97 93 71 69
86 100 99 96 100 100 100 100 100 92 90 97 82 86 90 88 80 70 66 66 67 66 62 65 72 73 66
86 94 95 100 100 100 90 88 98 100 100 100 100 100 100 85 78 65 59 64 64 77 80 77 77 73 68
98 80 95 97 100 83 75 88 96 100 100 100 100 100 100 92 80 82 91 88 89 87 81 77 72 71 73
94 89 90 89 91 81 94 80 94 98 100 100 99 89 83 96 97 93 85 93 77 73 71 73 73 80 86
78 79 77 83 89 74 68 87 82 76 94 88 79 83 71 72 81 86 91 86 80 74 80 81 76 76 83
93 84 84 76 92 89 75 64 69 69 70 64 57 56 51 48 54 62 65 68 68 67 69 68 72 76 66
86 91 88 88 84 79 87 82 72 62 60 74 71 66 67 64 62 61 63 69 80 87 90 86 77 67 63
80 85 82 84 80 77 80 82 80 89 82 76 72 73 78 83 84 88 90 86 76 73 68 63 63 71 79
69 69 69 67 67 68 68 70 68 69 76 85 87 87 87 85 82 86 75 64 67 72 69 76 81 85 88
73 68 66 67 66 64 65 66 65 66 66 61 57 56 57 58 59 61 66 75 77 75 69 64 57 51 49
74 76 75 72 68 66 63 62 61 62 61 61 58 53 51 48 52 48 47 50 51 51 48 46 45 46 47
Wind_Speed
106 105 103 105 107 109 110 110 110 109 109 108 106 104 102 102 101 99 97 97 95 94 92 91 93 94 95
107 106 106 110 111 111 110 111 111 110 107 109 109 107 105 105 106 106 103 104 101 102 104 102 101 97 100
112 109 108 109 112 113 112 113 110 110 110 113 113 112 110 110 111 111 111 108 107 105 107 104 107 103 98
116 115 111 111 110 112 113 118 118 119 118 117 118 116 112 112 112 111 109 107 108 109 105 103 105 102 104
117 117 118 117 117 116 115 115 115 118 121 119 119 119 117 115 110 109 108 109 109 108 107 108 109 106 104
120 121 117 120 118 120 120 119 121 119 119 118 117 115 116 115 114 116 116 114 113 112 110 109 109 109 106
121 122 125 124 121 122 120 121 121 119 116 115 116 115 112 112 113 113 112 112 111 111 111 111 110 110 108
127 126 124 123 127 124 125 121 120 116 117 120 120 119 119 118 116 115 112 111 111 110 107 106 104 103 103
134 132 130 131 133 130 127 125 124 118 119 121 120 121 119 118 115 115 113 111 110 108 109 109 112 112 110
137 137 135 134 137 135 130 129 130 126 126 129 128 129 121 118 117 117 115 115 116 114 114 114 114 114 113
138 138 141 138 139 140 137 133 135 135 133 134 133 133 129 123 123 122 122 122 121 121 120 118 120 122 120
139 137 138 139 144 146 144 140 139 140 139 138 136 134 132 130 124 121 124 127 126 126 126 127 126 126 127
135 138 140 140 140 139 141 141 140 138 136 135 137 136 135 133 133 130 129 130 132 131 130 129 130 130 129
137 138 139 141 142 141 142 144 144 142 143 143 142 140 138 137 136 135 136 135 133 131 132 131 132 132 132
138 139 139 141 142 143 142 143 143 143 144 143 143 142 141 141 140 139 138 136 136 134 132 132 133 135 137
139 138 139 140 140 141 143 143 142 142 142 141 140 140 138 136 135 135 136 137 137 137 136 135 133 134 134
139 139 139 140 141 140 139 140 140 140 139 139 138 137 135 133 135 135 133 133 134 135 136 135 134 135 136
Wind_Direction
249 251 253 255 256 257 258 259 259 260 261 263 263 264 265 265 265 268 269 269 270 270 269 268 271 273 274
249 249 250 251 251 254 255 257 259 260 261 261 262 263 264 264 267 268 269 271 271 270 271 271 273 273 273
249 249 250 250 252 252 253 254 255 256 257 259 260 263 264 264 264 266 268 269 269 269 270 270 270 273 272
249 248 249 250 251 254 253 254 256 257 259 260 261 262 262 264 265 266 267 267 268 268 269 269 271 272 273
249 249 249 249 249 251 252 253 254 256 257 259 261 263 263 264 264 264 264 265 266 267 269 271 272 272 272
248 248 246 248 251 252 253 254 255 255 257 258 260 260 260 261 263 264 267 267 267 268 270 270 271 272 273
248 249 248 247 248 250 251 252 254 257 261 261 263 263 264 265 265 265 266 267 268 269 270 272 273 273 273
248 247 248 249 251 252 255 257 256 257 261 261 263 263 263 264 265 268 269 270 271 272 272 271 271 272 273
249 249 249 250 251 252 253 253 255 255 257 259 259 260 261 264 266 268 268 269 269 268 270 271 271 272 272
247 248 250 249 250 251 251 252 253 254 255 258 258 260 261 264 266 266 266 268 269 270 269 271 272 272 273
250 250 251 252 252 252 252 252 252 254 255 256 259 262 263 262 263 265 266 267 268 269 272 272 272 272 273
250 252 252 253 251 253 256 257 257 260 261 262 262 263 263 263 265 265 267 269 271 272 273 274 275 274 275
251 251 252 253 255 256 257 259 260 261 263 264 264 264 266 266 267 268 269 271 273 272 273 274 274 275 276
252 252 253 254 256 257 257 259 260 261 263 264 265 267 268 269 270 271 271 272 272 272 272 273 274 275 276
253 254 255 256 258 258 259 260 262 263 264 265 265 266 267 268 269 271 271 272 272 273 273 273 274 275 275
253 254 255 256 257 258 259 261 262 263 264 265 266 267 267 268 268 269 270 271 272 273 273 273 273 273 274
254 254 255 256 257 258 259 260 261 263 264 265 266 267 267 268 268 269 269 270 270 270 271 272 272 272 273